Home > Weather > Mount Pearl > Past weeks

Flag for Canada Weather for the Past 2 Weeks in Mount Pearl, Newfoundland and Labrador, Canada

Now
39 °F

Overcast.


Feels Like: 33 °F
Forecast: 28 / 42 °F
Wind: 9 mph from Northeast

Location: St. John's

Current Time: May 1, 2016 at 1:16:06 PM

Latest Report: May 1, 2016 at 12:30 PM


Visibility: 15 mi

Pressure: 30.34 "Hg

Humidity: 65%

Dew Point: 28 °F

Location of Mount PearlLocation

Historic Weather in Mount Pearl — Graph

°F

Mount Pearl Temperature Yesterday

Maximum temperature yesterday: 48 °F (at 1:30 PM)
Minimum temperature yesterday: 32 °F (at 12:30 AM)
Average temperature yesterday: 38 °F

High & Low Weather Summary for the Past Weeks

 TemperatureHumidityPressure
High50 °F (Apr 24, 9:30 AM)100% (Apr 17, 7:30 AM)30.43 "Hg (Apr 17, 7:30 AM)
Low25 °F (Apr 26, 5:30 AM)41% (Apr 26, 2:24 PM)29.08 "Hg (Apr 20, 7:30 PM)
Average34 °F81%29.83 "Hg
* Reported Apr 16 11:30 AM — May 1 11:30 AM, Mount Pearl, Weather by CustomWeather, © 2016

Note: Actual official high and low records may vary slightly from our data, if they occured in-between our weather recording intervals... More about our weather records

Advertising

Mount Pearl Weather History for the Previous 24 Hours

Scroll right to see more
 ConditionsComfort  
Time TempWeatherWind HumidityBarometerVisibility
11:30 AM
Sun, May 1
37 °FOvercast.8 mph70%30.36 "Hg15 mi
10:30 AM37 °FPartly sunny.8 mph75%30.36 "Hg15 mi
9:30 AM37 °FPartly sunny.10 mph75%30.35 "Hg15 mi
8:30 AM36 °FPartly sunny.6 mph81%30.34 "Hg15 mi
7:30 AM36 °FPartly sunny.3 mph75%30.32 "Hg15 mi
6:30 AM32 °FScattered clouds.5 mph80%30.32 "Hg15 mi
5:30 AM30 °FPassing clouds.5 mph80%30.30 "Hg15 mi
4:30 AM28 °FPassing clouds.5 mph80%30.29 "Hg15 mi
3:30 AM28 °FClear.3 mph80%30.29 "Hg15 mi
2:30 AM30 °FClear.2 mph80%30.27 "Hg15 mi
1:30 AM32 °FClear.3 mph75%30.26 "Hg15 mi
12:30 AM30 °FClear.6 mph80%30.26 "Hg15 mi
11:30 PM
Sat, Apr 30
32 °FClear.No wind75%30.24 "Hg15 mi
10:30 PM34 °FClear.6 mph70%30.23 "Hg15 mi
9:30 PM32 °FClear.6 mph75%30.21 "Hg15 mi
8:30 PM36 °FPassing clouds.No wind65%30.17 "Hg15 mi
7:30 PM37 °FSunny.8 mph60%30.14 "Hg15 mi
6:30 PM39 °FPassing clouds.13 mph56%30.11 "Hg15 mi
5:30 PM39 °FPassing clouds.15 mph65%30.09 "Hg15 mi
4:30 PM43 °FPartly sunny.15 mph61%30.05 "Hg15 mi
3:30 PM48 °FPartly sunny.12 mph50%30.01 "Hg15 mi
2:30 PM48 °FPartly sunny.22 mph46%29.98 "Hg15 mi
2:18 PM48 °FBroken clouds.18 mph50%29.98 "Hg15 mi
1:30 PM48 °FScattered clouds.21 mph50%29.96 "Hg15 mi
Weather by CustomWeather, © 2016

See weather overviewHow to use our weather pages